ギブス彗星

P/2017 W3 ( Gibbs )

English version
Home page
Updated on April 13, 2018

---------------------------------------------------------------------

・ プロフィール

発見日 2017年11月27日
発見光度 19.2等
発見者 Alex R. Gibbs (Catalina Sky Survey)

・ 写真集

・ 軌道要素

Epoch 2018 Feb. 11.0 TT = JDT 2458160.5
T 2018 Feb. 24.94782 TT                                 MPCW
q   3.8373377            (2000.0)            P               Q
n   0.04580990     Peri.  326.44030     -0.98447956     -0.07053274
a   7.7356437      Node   210.75432     +0.09192676     -0.98726442
e   0.5039407      Incl.   18.31646     -0.14949740     -0.14259764
P  21.52
From 105 observations 2017 Nov. 27-2018 Mar. 21, mean residual 0".6.

・ 光度変化

        m1 = 10.0 + 5 logΔ + 10.0 log r

---------------------------------------------------------------------

軌道要素はM.P.E.C. 2018-F152に掲載されたものです。
光度グラフはComet for Windowsで作成したものです。

---------------------------------------------------------------------

Copyright(C) Seiichi Yoshida (comet@aerith.net). All rights reserved.